CDT,Max TemperatureF,Mean TemperatureF,Min TemperatureF,Max Dew PointF,MeanDew PointF,Min DewpointF,Max Humidity, Mean Humidity, Min Humidity, Max Sea Level PressureIn, Mean Sea Level PressureIn, Min Sea Level PressureIn, Max VisibilityMiles, Mean VisibilityMiles, Min VisibilityMiles, Max Wind SpeedMPH, Mean Wind SpeedMPH, Max Gust SpeedMPH,PrecipitationIn, CloudCover, Events, WindDirDegrees
2012-6-1,68,55,44,48,43,38,100,70,36,29.96,29.93,29.89,10,9,4,20,10,25,0.00,3,,306
2012-6-2,78,65,52,53,49,44,80,58,37,29.88,29.84,29.78,10,10,10,17,7,25,0.00,3,,260
2012-6-3,82,67,52,60,53,48,89,57,34,29.90,29.85,29.80,10,10,10,8,4,,0.00,0,,210
2012-6-4,86,73,62,67,61,58,90,70,52,29.90,29.82,29.78,10,10,10,18,6,24,0.00,2,,97
2012-6-5,82,68,55,58,51,45,90,53,32,29.99,29.94,29.90,10,10,10,13,5,20,0.00,1,,68
2012-6-6,78,66,55,51,48,46,75,51,34,30.07,30.03,29.97,10,10,10,12,7,16,0.00,0,,95
2012-6-7,82,69,57,51,47,45,72,45,29,30.14,30.09,30.06,10,10,10,8,3,,0.00,0,,110
2012-6-8,86,72,61,52,49,45,65,43,28,30.10,30.02,29.93,10,10,10,13,5,17,0.00,0,,166
2012-6-9,89,76,64,60,54,48,59,46,29,29.94,29.87,29.79,10,10,10,16,8,21,0.00,0,,167
2012-6-10,87,78,68,65,62,57,71,59,44,29.88,29.84,29.80,10,10,10,18,10,26,0.00,1,,162
2012-6-11,80,74,66,68,66,58,94,79,60,29.96,29.87,29.80,10,8,1,17,7,23,0.35,4,Rain-Thunderstorm,252
2012-6-12,78,68,57,55,47,35,81,51,21,30.14,30.09,29.98,10,10,10,17,8,23,0.00,0,,329
2012-6-13,79,66,53,53,49,45,77,55,36,30.16,30.09,30.02,10,10,10,13,6,,0.00,0,,110
2012-6-14,87,72,57,58,53,49,75,50,32,30.05,30.00,29.89,10,10,10,16,9,21,0.00,0,,149
2012-6-15,90,76,63,68,59,52,93,60,27,30.02,29.96,29.88,10,10,3,20,9,29,0.12,2,Rain-Thunderstorm,149
2012-6-16,93,81,69,71,68,64,93,73,39,30.02,29.94,29.86,10,10,5,23,10,32,0.25,3,Rain-Thunderstorm,206
2012-6-17,88,77,66,70,66,60,100,78,46,29.98,29.91,29.75,10,8,0,12,6,,0.00,2,Fog,218
2012-6-18,93,84,75,68,65,60,74,55,37,29.80,29.73,29.69,10,10,10,28,15,39,0.00,0,,198
2012-6-19,93,83,73,69,66,63,76,57,42,29.92,29.88,29.81,10,10,10,22,14,31,0.00,1,,186
2012-6-20,93,84,75,66,65,63,64,53,39,29.98,29.92,29.85,10,10,10,18,13,26,0.00,1,,191
2012-6-21,84,76,66,66,62,56,83,63,41,30.03,29.98,29.91,10,10,10,16,9,20,0.00,3,Rain,307
2012-6-22,84,72,60,59,54,50,84,53,32,30.07,30.02,29.97,10,10,10,10,4,,0.00,0,,23
2012-6-23,82,72,64,65,57,53,73,57,41,30.03,29.98,29.94,10,10,10,12,5,18,0.00,0,Rain,148
2012-6-24,93,80,68,71,62,53,82,56,41,30.01,29.93,29.86,10,10,10,20,9,32,0.00,1,,134
2012-6-25,87,76,64,69,59,46,84,55,30,29.99,29.95,29.88,10,10,10,18,11,22,0.00,1,,66
2012-6-26,86,70,55,54,51,46,77,51,32,30.02,29.96,29.88,10,10,10,14,9,18,0.00,0,,117
2012-6-27,100,81,62,64,55,48,67,42,26,29.94,29.86,29.79,10,10,10,17,10,25,0.00,0,,181
2012-6-28,104,90,77,70,66,63,64,48,29,29.88,29.85,29.81,10,10,10,18,10,25,0.00,0,,243
2012-6-29,102,88,75,67,61,53,71,42,19,29.92,29.83,29.75,10,10,10,15,6,21,0.00,0,,246
2012-6-30,99,85,72,70,65,62,78,50,30,29.86,29.82,29.78,10,10,10,20,8,21,0.00,1,Rain-Thunderstorm,174